Wind_Speed
9 9 7 5 6 5 4 3 1 1 1 1 2 1 1 2 1 1 1 0 1 2 2 1 3 4 3 2 5 8 10 12 12 10 10 11 10 10 9 9 10 9 10 9 8 8 8 8 8 7 7 7 7 6 6 6 6 6 6 6 5 5 5 4 4 3 3 2 2 3 3 2 2 1 0 0 1 1 2 2 3 3 3 3 4
9 9 8 6 6 5 3 4 4 3 2 1 0 0 1 2 1 1 1 0 1 1 2 2 3 4 3 3 4 6 10 13 13 12 12 11 11 10 9 9 9 9 9 9 8 7 8 8 8 7 7 7 7 6 6 6 6 6 6 6 5 5 5 4 4 3 3 2 2 2 2 1 1 1 1 2 2 2 3 3 3 4 4 4 4
8 8 8 7 5 4 4 5 5 4 3 2 1 1 2 1 1 2 1 0 0 1 2 2 3 4 4 4 4 3 9 14 13 13 13 11 11 10 9 9 8 8 9 8 7 7 8 7 7 7 7 7 7 7 6 6 6 6 6 6 5 5 5 4 4 4 3 3 3 2 2 2 2 2 3 3 3 3 4 4 4 4 4 4 5
9 9 7 7 6 5 6 4 3 4 3 1 1 2 2 1 1 1 1 0 0 2 2 2 3 4 3 4 4 3 8 15 13 13 12 11 10 9 9 9 8 8 8 8 7 8 8 8 7 7 7 7 7 7 7 7 6 6 6 5 5 5 4 4 4 4 4 3 3 3 3 3 3 3 3 3 4 3 4 4 4 4 4 5 5
8 9 5 6 7 6 6 5 4 3 2 1 2 3 3 3 1 1 1 1 1 1 1 3 4 5 5 4 4 2 7 15 14 13 13 11 11 9 9 9 8 8 7 7 7 8 9 8 8 7 6 6 7 7 7 7 7 6 6 6 5 5 4 4 4 4 5 4 3 3 3 3 3 4 4 4 4 4 4 4 5 5 5 6 6
6 9 6 5 6 5 5 5 5 3 3 3 3 3 3 2 1 1 1 1 2 2 2 2 2 6 5 3 4 2 4 13 14 12 12 11 12 11 9 9 8 8 7 7 7 7 8 8 7 7 6 6 5 6 6 7 8 7 7 6 5 5 5 4 5 5 5 5 4 4 5 5 5 5 5 4 5 5 5 5 6 6 7 7 7
8 9 8 6 6 6 6 5 5 4 4 4 3 2 2 1 1 1 0 1 3 4 3 3 4 4 1 2 6 3 3 11 13 9 9 10 11 11 10 9 9 8 7 7 7 7 6 7 7 6 6 6 5 5 6 6 7 7 6 6 6 6 5 5 5 5 5 5 5 6 6 6 6 6 6 6 6 6 7 7 7 8 8 8 8
10 9 9 7 6 6 7 7 6 5 5 3 2 2 1 1 2 2 1 1 3 3 4 5 6 2 2 2 4 4 7 10 10 7 7 9 11 11 9 9 10 9 7 6 6 6 6 5 6 6 6 5 5 5 5 6 7 7 6 6 6 7 7 6 6 6 6 6 6 7 8 8 8 8 8 8 8 7 7 8 8 8 8 8 8
12 10 9 8 6 5 6 7 5 5 5 2 3 2 1 2 2 2 0 4 4 4 8 8 6 0 4 5 3 7 9 8 7 7 9 9 10 10 9 9 10 10 9 7 5 6 6 5 6 6 6 6 5 5 5 6 6 6 6 7 7 7 6 6 6 7 7 7 7 8 8 8 8 7 7 8 8 8 8 9 9 9 9 9 9
12 11 10 9 7 5 6 6 6 5 4 2 2 1 2 1 1 2 1 4 6 6 8 7 4 3 3 8 8 9 8 6 5 5 9 11 10 9 9 9 9 9 9 9 6 5 5 6 6 6 6 6 6 6 6 6 7 7 7 7 7 6 6 5 5 6 6 6 7 8 8 7 7 7 7 7 8 8 9 9 9 9 9 9 9
13 12 12 10 8 7 6 6 6 5 4 3 2 1 2 2 1 2 2 3 5 4 5 4 2 4 7 10 8 8 7 5 3 3 7 10 10 10 10 9 8 8 9 9 7 6 5 6 7 6 5 5 6 6 6 6 7 7 7 7 7 7 6 5 5 4 4 4 5 6 6 5 5 5 6 6 6 7 8 8 8 8 8 8 8
14 13 12 11 9 8 7 7 6 5 4 3 2 2 3 3 2 3 3 2 2 4 5 3 2 4 7 8 6 5 5 3 3 4 5 8 9 8 9 9 8 8 9 9 8 7 6 5 5 5 5 5 6 6 6 6 6 7 7 7 7 7 6 5 5 4 3 3 3 3 3 4 4 4 4 5 5 5 5 5 5 5 5 6 6
14 14 13 12 11 9 8 8 7 6 5 3 2 1 3 3 3 4 3 2 1 4 5 3 4 6 4 5 6 4 3 2 3 5 6 7 7 7 7 8 6 6 7 8 7 7 6 6 5 5 4 5 7 7 6 6 6 6 7 6 6 6 6 5 4 4 3 3 2 2 2 2 2 2 2 2 2 2 2 2 2 2 3 4 4
15 14 13 12 12 10 9 9 8 7 7 5 4 2 2 3 3 4 3 1 1 3 5 3 3 6 4 4 6 4 2 3 4 6 8 7 7 7 8 8 8 6 6 7 7 6 7 7 7 6 5 5 7 7 7 6 5 6 7 7 6 6 5 5 4 4 4 3 2 2 1 1 0 0 1 1 1 2 2 3 2 2 3 4 4
15 15 14 13 12 12 10 10 9 8 7 6 5 4 3 4 5 4 4 3 2 2 3 1 1 5 7 2 2 4 1 4 6 5 9 8 8 8 8 8 9 8 6 7 6 7 8 7 7 7 7 6 6 7 8 7 6 6 7 7 6 6 5 4 4 4 4 4 3 2 2 2 2 3 4 3 2 3 3 3 3 3 4 5 5
16 15 15 14 13 13 13 12 11 10 9 7 6 5 5 5 6 6 6 6 6 6 4 1 2 3 4 1 3 3 1 4 6 5 8 10 10 9 9 10 10 8 7 7 6 8 10 7 5 5 6 5 5 7 8 7 7 6 6 6 6 6 6 5 5 5 5 4 4 4 4 4 5 5 5 4 4 4 5 5 5 5 5 6 6
16 16 16 15 14 14 14 13 11 10 9 8 7 6 6 6 7 7 8 7 4 9 7 3 2 0 1 0 1 1 1 4 5 2 3 8 10 8 9 11 11 8 7 8 8 10 10 8 6 6 6 4 4 7 7 6 7 7 7 6 6 7 6 6 6 5 5 5 5 5 5 5 5 5 4 4 4 4 4 5 5 5 5 6 6
17 17 16 15 15 14 14 13 12 11 10 9 8 7 7 7 7 8 7 6 2 8 9 5 4 3 2 1 1 1 1 1 1 1 1 4 9 8 7 10 11 8 6 8 8 8 8 7 8 7 6 5 6 8 6 5 6 6 7 7 7 7 6 6 5 5 5 5 5 5 4 4 4 4 3 3 3 3 3 4 4 4 4 5 5
18 18 18 16 16 15 15 14 12 12 11 10 10 8 7 7 9 9 7 5 4 6 7 7 7 5 4 5 3 1 1 1 1 1 1 1 3 6 7 9 11 8 7 9 8 7 7 8 9 8 7 7 9 9 7 6 6 5 7 8 8 7 6 6 5 5 5 5 5 5 4 4 4 4 3 3 3 3 3 3 3 4 4 4 5
19 18 19 18 17 16 16 15 13 12 11 11 10 9 9 9 11 10 7 7 7 6 5 6 7 7 7 6 5 2 2 2 1 1 1 1 1 2 6 11 12 9 9 11 10 9 9 9 9 8 8 8 8 9 9 9 9 7 7 9 9 8 8 7 6 6 6 6 5 5 5 4 4 4 4 4 4 4 4 4 3 4 4 5 6
21 20 20 19 19 18 17 17 15 12 12 12 11 11 10 11 12 11 9 8 9 9 8 5 5 6 9 8 5 3 4 5 4 2 0 1 1 2 6 9 10 10 10 10 12 12 10 9 8 8 9 8 9 11 10 9 10 10 9 10 9 8 8 7 7 6 6 6 5 5 5 4 4 3 3 3 3 3 2 2 2 3 4 5 6
22 21 21 20 20 19 18 18 17 14 13 12 12 13 12 12 13 13 12 10 10 10 10 8 5 4 7 8 6 4 4 3 5 6 4 2 2 4 7 9 7 8 9 10 12 13 11 10 8 9 9 8 10 11 9 7 9 11 11 10 9 8 8 7 6 6 6 6 5 5 5 4 4 4 3 3 2 1 1 0 1 3 4 5 7
23 21 22 21 21 21 19 18 17 16 15 14 13 13 14 14 14 14 14 12 12 11 10 10 7 5 5 6 6 6 4 3 5 6 6 5 4 5 5 7 8 10 9 7 9 12 12 11 9 10 10 10 12 11 9 8 8 8 10 9 9 9 8 8 7 6 6 6 5 5 5 5 4 4 3 3 2 2 2 3 4 5 6 6 7
22 22 22 22 22 22 20 19 18 17 17 16 15 14 15 16 16 16 16 14 14 13 12 12 9 8 7 6 6 8 7 7 8 7 5 5 4 4 4 3 6 11 11 7 7 9 12 13 11 11 12 12 13 12 11 11 10 8 9 9 9 9 8 8 8 7 6 6 6 5 5 5 5 4 4 4 4 4 5 6 6 7 8 9 9
22 23 23 23 23 24 23 21 20 20 19 18 17 15 15 16 17 18 18 17 16 15 15 14 12 10 10 9 8 9 9 9 9 8 7 6 3 4 6 4 5 10 13 11 8 8 11 13 13 13 12 10 11 13 12 12 12 11 11 11 11 10 10 9 9 8 8 7 7 7 6 6 6 6 6 6 6 7 8 8 9 10 10 11 11
23 24 24 23 24 25 24 23 22 21 20 19 18 17 16 16 17 18 18 18 18 17 16 15 13 12 11 11 11 11 11 10 10 9 8 8 8 6 6 3 3 7 12 12 11 10 11 13 14 16 14 10 11 13 12 12 13 13 13 12 12 12 12 10 10 10 10 10 10 9 9 9 9 8 9 9 9 9 10 11 11 12 12 13 13
25 24 24 24 24 25 25 24 23 22 21 21 19 18 18 17 17 17 18 19 19 19 18 16 15 14 13 12 13 12 11 11 11 10 9 8 10 11 8 3 2 3 8 9 11 12 13 13 15 18 16 13 14 14 13 14 13 13 14 14 11 11 12 12 12 12 12 12 12 12 12 12 12 11 11 11 12 12 12 13 13 13 14 14 14
25 25 24 24 25 25 25 25 24 23 23 23 22 20 20 20 19 18 18 19 20 20 19 18 17 15 15 15 14 14 13 11 11 11 11 11 8 9 11 8 4 2 4 6 8 10 13 13 13 17 18 16 17 17 15 15 14 12 13 13 11 11 12 13 14 13 13 13 14 14 15 15 15 14 14 14 14 14 14 15 15 15 15 15 15
24 25 25 25 25 25 26 25 24 24 24 24 24 22 21 21 21 21 21 20 20 21 20 19 18 16 16 16 16 17 16 12 11 12 11 11 10 7 9 11 9 4 2 3 5 8 13 14 13 15 19 19 18 17 15 15 15 14 13 13 12 13 14 15 15 14 13 13 13 15 16 17 17 17 17 17 17 17 16 16 16 16 16 16 16
24 23 24 26 26 26 26 25 25 25 25 24 25 24 22 22 22 22 23 21 21 22 22 20 19 18 17 17 17 19 19 16 13 13 12 12 12 10 8 11 11 9 5 2 3 9 13 16 16 15 18 19 18 16 15 15 15 15 15 15 14 14 15 15 15 14 13 13 13 14 15 16 17 17 17 18 18 18 17 17 17 17 17 17 17
26 24 24 25 27 27 27 26 25 26 26 25 26 25 24 24 23 22 23 23 22 23 23 22 20 19 19 19 18 19 20 19 16 15 15 13 14 14 12 12 13 13 11 5 2 7 10 12 14 14 17 19 16 15 14 14 15 16 16 16 14 14 15 15 14 14 14 14 14 13 13 13 15 15 16 17 17 17 17 17 17 17 18 17 16
27 27 25 25 26 27 27 27 26 26 26 26 26 26 26 25 24 22 23 24 24 24 24 23 22 21 21 21 20 20 20 19 18 17 17 15 15 16 15 14 14 14 14 10 5 6 8 8 6 8 14 16 13 12 13 14 15 15 15 16 15 15 16 16 15 15 15 15 14 12 11 12 13 14 15 16 17 17 17 17 17 18 17 16 15
27 27 28 27 26 27 27 27 27 26 27 27 27 27 27 27 26 24 23 24 25 25 24 24 23 22 23 23 22 21 20 20 20 19 19 17 16 17 17 16 17 16 16 14 10 8 10 10 7 7 12 14 14 13 12 13 14 14 15 16 16 16 15 15 16 15 14 13 13 12 11 11 12 13 15 16 16 17 17 17 17 16 15 14 14
28 28 29 29 28 27 27 28 28 28 28 28 28 28 28 28 28 26 24 25 26 26 25 26 25 24 24 25 24 23 22 21 22 21 21 19 18 19 19 19 19 19 19 18 14 11 10 11 12 11 11 12 13 13 13 13 13 13 15 16 16 17 16 14 14 14 13 13 14 13 12 12 12 13 14 15 16 16 17 16 15 14 13 13 13
29 29 28 29 29 29 28 29 29 29 29 30 29 29 29 30 29 28 26 26 27 28 27 27 27 26 25 26 26 25 23 23 23 23 22 21 21 21 21 21 21 20 20 20 18 15 13 12 13 15 14 12 11 11 12 14 14 13 14 14 14 15 16 15 15 15 14 14 14 14 14 13 13 13 14 15 15 15 15 15 14 13 12 12 12
29 30 29 29 29 30 30 29 30 30 30 31 31 31 31 31 31 30 28 27 28 29 29 29 29 29 28 27 27 26 25 25 25 25 24 23 23 22 22 23 23 21 21 22 22 18 15 14 14 16 18 17 15 13 11 12 15 15 15 14 14 14 15 15 15 15 15 14 13 14 14 13 13 14 15 15 15 15 14 14 13 12 12 12 12
29 30 31 30 29 31 32 31 31 32 32 32 32 32 31 32 32 31 30 29 29 29 30 30 30 30 30 29 28 27 27 26 26 27 27 26 25 24 24 24 24 23 22 22 24 22 18 16 16 16 17 17 17 18 16 14 15 17 16 16 16 16 16 16 15 15 15 16 15 15 15 15 15 15 15 15 15 15 14 13 12 12 11 12 13
31 30 30 32 31 31 32 33 32 32 33 32 33 33 32 31 31 31 30 30 30 30 30 30 30 30 30 30 29 28 29 29 28 28 28 28 27 26 25 25 25 25 23 22 23 24 23 19 17 16 17 17 18 18 19 18 17 17 18 18 18 18 17 17 17 15 15 16 17 17 17 17 17 16 15 14 14 14 13 12 12 12 11 11 12
32 31 30 31 32 32 33 33 33 33 33 33 33 33 32 31 31 30 29 29 30 30 31 30 30 30 30 30 30 30 30 31 30 29 29 29 29 28 27 27 26 25 25 24 23 24 25 23 19 18 17 19 20 19 18 19 19 18 19 19 19 20 19 19 19 18 16 17 17 18 17 16 16 16 15 14 13 13 13 13 12 12 11 11 12
31 31 31 31 32 33 33 34 34 33 33 33 33 33 33 32 30 30 30 29 30 30 30 30 30 30 30 30 30 31 32 33 32 31 31 31 30 30 29 28 27 27 26 26 24 23 24 23 22 21 19 19 21 20 18 18 20 21 22 21 20 21 21 22 22 20 19 18 17 17 16 16 16 17 16 15 14 14 13 12 12 12 12 11 12
30 31 31 30 31 32 32 33 33 33 33 34 35 34 34 34 32 31 31 31 31 30 30 30 30 30 30 29 30 31 33 35 35 34 33 33 33 33 32 31 30 29 27 26 26 25 24 22 22 22 21 20 21 23 22 22 23 24 24 22 21 20 21 22 23 23 21 19 17 16 16 17 17 18 17 16 16 15 14 13 13 14 13 11 12
31 31 31 30 30 31 32 32 32 33 34 35 37 38 37 37 35 34 32 32 32 31 30 30 30 31 31 30 30 31 33 36 37 37 36 36 36 37 36 35 34 32 30 28 27 27 25 23 23 22 21 21 23 25 25 26 26 25 23 22 22 21 20 19 20 22 23 22 19 18 18 17 16 17 18 18 16 15 14 13 12 12 12 12 13
32 32 31 31 31 30 30 32 33 34 36 36 38 40 41 40 39 37 35 33 33 33 32 31 31 31 31 32 32 32 34 36 38 39 39 39 39 38 37 37 37 36 35 32 30 29 28 25 25 24 23 23 25 26 26 26 26 25 25 24 23 21 20 17 16 17 21 24 23 21 20 18 16 17 17 15 14 14 14 13 13 14 15 16 16
34 32 31 32 33 31 30 31 33 34 36 37 39 41 42 43 42 40 37 35 34 34 34 33 33 32 32 33 33 33 34 37 39 41 42 42 42 40 38 38 39 39 40 39 36 33 31 29 27 27 27 26 26 27 27 27 27 27 26 25 24 24 22 20 18 17 18 22 24 23 21 19 18 18 18 16 17 18 18 18 17 17 16 15 14
34 33 33 33 34 33 32 31 32 34 34 36 38 41 43 44 45 43 39 36 35 35 35 35 35 35 35 34 34 34 34 36 39 42 44 44 44 43 42 40 41 41 42 42 41 38 36 33 30 30 31 29 28 30 30 28 28 28 28 27 26 25 24 23 23 21 19 19 22 22 20 18 19 20 20 20 20 19 19 18 17 15 14 13 12
34 34 35 34 33 34 34 32 32 33 34 34 37 40 43 44 45 45 42 38 36 36 36 37 37 37 37 36 35 36 35 35 39 43 45 46 46 46 45 44 44 43 43 44 44 42 39 36 34 34 34 32 31 31 31 30 30 29 29 29 29 27 26 25 24 22 20 19 21 20 17 16 18 19 20 19 18 18 18 18 16 14 13 13 12
34 35 35 34 33 34 35 35 33 32 32 33 35 39 42 43 44 46 45 41 36 35 35 36 37 38 38 38 37 37 37 36 39 41 43 45 46 47 48 47 46 45 44 46 47 45 43 40 38 36 35 35 34 31 30 31 32 30 28 28 29 28 25 23 21 19 18 19 21 20 16 15 16 18 19 17 16 17 17 15 13 14 14 13 11
31 32 33 33 33 33 34 35 34 33 32 33 35 38 40 42 43 45 47 44 39 36 35 35 36 37 37 37 38 38 38 39 39 40 42 42 42 44 46 47 45 44 45 48 49 48 47 45 42 38 35 34 34 33 30 30 31 31 27 24 23 24 22 19 17 18 18 18 22 23 17 14 15 17 18 17 16 16 15 10 10 12 13 12 11
27 29 30 31 32 32 32 33 34 35 34 33 34 36 38 40 43 45 48 46 42 39 38 36 34 35 35 37 38 38 39 40 40 40 41 41 41 41 43 45 44 43 44 46 48 49 50 48 46 43 38 34 33 33 32 31 29 29 28 24 21 22 20 16 14 17 19 19 22 23 19 15 15 17 17 17 16 15 11 9 10 12 12 12 10
27 26 27 29 30 31 32 32 33 34 34 33 34 35 36 38 42 45 47 46 42 41 41 38 35 33 34 36 39 40 40 39 39 40 41 43 43 40 40 42 42 42 45 44 43 46 51 51 49 46 43 38 33 32 33 33 31 30 30 28 24 22 20 17 15 17 18 20 23 23 19 16 16 16 16 13 11 10 9 9 12 14 13 10 9
28 26 25 26 28 30 31 31 32 33 33 33 34 36 37 37 39 44 46 44 41 40 38 36 34 34 34 35 37 40 41 39 38 40 42 45 46 43 41 40 40 44 48 46 41 42 47 51 52 49 46 43 39 35 33 32 33 32 33 32 28 25 23 21 20 16 12 15 23 25 21 18 17 18 17 11 5 6 9 10 11 11 9 8 9
Wind_Direction
175 177 184 180 172 175 169 173 227 249 195 178 166 149 238 250 244 264 231 209 29 50 81 135 151 126 142 148 127 151 155 148 152 153 150 143 134 130 128 134 143 147 150 155 154 153 158 159 159 160 159 156 153 155 155 156 157 156 159 160 158 157 159 159 155 149 144 144 141 148 147 142 163 185 192 304 328 340 352 352 349 348 348 348 345
176 171 173 170 169 182 196 201 214 221 213 259 298 86 278 250 231 313 309 342 36 59 93 133 145 127 125 124 125 151 155 151 152 150 148 147 144 136 130 133 139 144 148 154 156 157 162 164 165 166 165 165 164 166 165 164 163 163 167 166 163 163 168 171 167 165 168 179 179 170 181 190 210 239 261 282 298 305 311 318 321 322 328 331 328
170 166 165 163 177 189 202 215 202 196 215 271 246 223 259 240 236 285 277 214 9 92 133 142 131 129 134 143 140 132 145 148 143 141 146 147 147 142 135 135 139 141 145 150 153 155 162 164 167 169 171 173 173 175 177 175 173 174 175 171 172 174 177 180 181 182 183 197 208 208 224 237 249 264 275 287 295 296 299 303 308 311 319 323 320
160 160 168 172 183 191 199 215 193 185 221 274 232 222 238 236 238 244 194 197 80 97 121 133 122 130 132 131 131 115 133 138 134 136 143 143 144 145 139 137 139 141 142 148 146 147 156 162 168 171 175 179 180 183 184 181 182 185 183 178 182 187 191 195 197 195 197 208 216 219 230 243 255 268 276 283 292 296 299 303 306 310 312 314 315
161 157 167 176 182 192 187 194 201 197 217 260 265 236 217 224 255 22 64 93 113 112 130 148 143 119 107 103 110 89 119 128 129 134 136 138 145 147 144 139 136 138 138 145 142 139 147 157 165 169 170 177 185 191 190 188 190 191 189 189 193 200 206 211 217 215 216 224 230 232 237 249 256 262 270 274 283 290 296 301 301 304 304 305 307
173 166 174 181 184 192 183 194 201 191 223 240 256 240 219 233 249 49 72 141 132 119 85 103 101 98 105 115 130 120 124 128 125 128 128 131 148 149 146 144 139 137 136 142 142 138 141 148 159 163 162 169 180 191 197 199 198 195 193 196 199 206 212 216 227 232 233 236 241 248 250 256 260 263 269 272 278 283 287 291 294 297 299 299 300
178 175 180 190 197 193 194 215 195 185 232 232 246 251 228 229 122 63 137 200 179 137 95 69 65 74 102 143 151 151 110 119 114 120 123 124 144 149 147 149 148 147 143 142 140 137 139 143 153 157 157 164 165 173 188 196 200 200 200 202 204 211 214 217 226 232 236 237 241 248 250 252 254 257 264 268 270 274 278 282 286 290 294 296 297
182 183 179 186 214 201 199 216 192 200 236 234 260 258 204 178 96 54 42 281 235 146 88 91 90 96 206 173 178 134 87 99 105 125 132 124 141 148 145 144 148 154 152 148 141 135 140 141 145 151 152 158 159 159 171 181 192 199 202 204 209 217 218 219 227 231 234 234 236 242 245 249 251 252 259 263 264 268 271 275 278 281 284 286 288
184 189 182 182 213 208 197 206 190 211 238 248 267 254 158 161 96 80 56 329 330 53 59 72 82 248 181 140 112 101 93 91 100 126 136 136 146 149 144 143 149 152 149 162 162 136 141 149 146 149 151 153 154 156 163 169 178 188 198 202 207 217 222 224 230 238 241 238 234 236 241 249 250 250 255 260 264 269 270 273 276 279 282 284 285
187 192 188 185 200 208 202 198 188 207 232 238 258 256 105 132 103 105 161 345 10 43 48 62 68 354 81 94 80 86 92 99 107 124 137 142 147 149 152 156 157 152 150 165 173 147 141 144 144 145 150 156 156 156 163 165 169 180 190 194 198 207 212 219 226 232 238 235 230 232 241 250 251 253 258 263 267 272 274 277 280 283 287 289 290
189 193 194 190 194 211 209 190 193 213 231 217 220 210 140 121 97 102 97 45 41 59 69 71 48 15 57 80 82 87 93 105 125 121 134 146 152 155 163 173 170 162 162 163 164 165 153 134 133 132 133 151 158 161 171 169 170 179 181 183 189 195 200 209 220 221 220 218 220 227 240 251 256 260 264 271 274 277 278 278 282 287 292 293 292
192 195 197 192 192 211 211 197 204 218 229 214 206 207 164 131 127 114 105 129 95 91 98 77 65 67 74 90 94 100 111 122 148 147 149 157 166 167 170 180 177 165 162 157 155 163 160 144 141 138 132 144 157 166 174 170 175 181 179 180 183 187 193 204 216 218 212 210 211 219 235 245 250 261 267 274 278 278 280 277 284 296 300 301 300
194 194 198 196 194 205 209 206 208 212 220 212 213 206 142 142 144 127 132 179 140 109 113 117 122 113 100 112 111 107 126 155 171 169 163 154 169 182 171 172 176 164 152 147 153 157 153 151 154 160 150 142 151 158 161 161 170 176 174 177 180 181 186 196 209 210 201 198 198 197 201 218 247 266 260 263 278 309 339 343 345 334 331 335 331
195 196 199 200 200 202 209 213 212 221 220 198 202 204 154 169 147 134 161 179 125 130 128 151 156 138 138 123 122 127 155 206 204 172 160 156 166 171 161 160 168 170 146 134 149 154 145 141 147 164 167 157 157 154 152 154 160 165 165 167 169 170 172 177 187 186 180 180 181 175 170 182 218 184 135 127 53 41 35 26 26 4 358 3 360
196 199 199 201 205 203 210 213 209 222 221 205 211 210 187 178 161 167 184 169 152 156 147 197 311 117 127 116 145 151 156 250 238 180 159 166 163 156 153 148 152 160 147 136 153 156 143 133 140 162 169 170 174 164 157 161 166 167 170 172 166 159 161 161 161 163 161 159 157 145 119 102 107 105 96 91 71 61 61 50 46 35 28 28 26
199 201 200 202 206 203 210 215 212 219 218 218 217 202 204 191 176 187 201 199 172 153 148 175 344 65 111 185 204 166 133 226 228 188 160 162 156 155 154 146 144 149 149 147 152 147 139 133 133 152 157 156 170 170 163 165 173 177 180 181 168 155 153 145 136 136 133 127 125 112 102 96 93 94 88 83 78 70 69 64 60 56 49 45 40
201 202 202 203 206 207 215 219 217 219 212 212 215 203 208 197 183 195 214 238 191 146 147 168 201 176 75 221 204 153 142 193 195 183 162 151 146 152 151 146 145 148 154 153 148 140 138 144 146 152 164 160 158 165 168 175 178 177 175 171 162 153 148 140 130 127 124 119 116 108 102 99 93 95 94 86 83 77 72 69 63 58 51 44 36
203 203 204 205 206 207 215 218 213 215 210 208 215 211 205 193 187 198 214 248 196 139 154 169 176 195 203 211 259 69 109 218 153 56 331 136 141 156 156 148 147 147 156 158 152 148 150 158 157 158 171 173 163 159 163 173 175 174 169 163 159 156 151 147 142 136 133 125 122 120 111 107 104 100 98 92 85 80 72 67 59 52 45 35 26
203 204 204 206 208 204 208 215 214 213 209 205 210 206 198 191 189 197 207 217 183 140 157 167 164 188 207 213 235 200 82 26 109 105 330 29 117 153 160 153 150 153 170 174 168 160 158 159 158 156 159 165 164 160 159 161 169 177 171 166 164 160 155 151 149 141 136 135 128 126 121 115 114 107 104 101 93 87 77 69 60 47 34 22 13
202 205 205 205 210 208 205 209 215 216 208 202 207 207 201 190 185 191 202 210 196 170 173 177 174 187 199 218 237 219 157 189 187 78 71 13 25 160 174 166 163 171 180 177 173 165 158 160 163 160 161 173 174 170 174 179 186 191 178 171 168 159 154 147 145 142 135 139 137 133 131 125 121 113 109 107 97 90 76 63 47 30 17 8 1
201 205 207 205 208 210 207 206 208 214 211 201 199 204 199 185 181 187 191 199 199 188 190 208 222 200 185 205 236 228 216 206 178 142 127 224 187 212 199 178 169 177 187 188 180 174 170 168 174 171 167 178 182 182 192 201 203 198 181 174 171 161 157 151 146 148 147 148 149 148 147 141 139 137 129 124 112 102 88 63 35 14 0 354 349
200 204 206 205 207 209 209 208 205 208 210 203 200 202 195 183 186 190 186 189 194 193 197 207 242 241 186 196 219 226 238 219 177 179 191 209 246 246 199 178 173 174 191 207 184 170 173 175 181 182 177 179 184 195 210 211 204 196 185 181 181 172 166 163 159 159 161 165 167 167 167 165 167 167 162 158 154 155 171 322 332 332 333 335 335
198 202 205 204 207 208 207 208 206 207 208 205 206 205 196 190 191 190 189 192 192 193 199 201 222 252 215 196 202 213 236 236 224 212 182 178 220 258 209 181 186 180 189 211 181 172 176 178 193 198 193 191 186 197 213 211 208 201 194 192 191 188 183 181 181 179 180 184 185 184 182 184 185 186 189 197 213 235 264 286 298 308 312 316 318
194 199 203 202 204 206 206 207 206 208 209 207 207 206 200 194 193 193 192 195 195 193 196 198 209 230 231 214 203 220 229 222 238 243 206 187 198 255 258 210 172 172 185 195 188 198 189 182 201 209 206 202 187 188 201 209 215 211 209 212 210 207 203 200 200 200 204 205 204 205 205 209 211 215 224 233 247 260 275 285 291 297 300 303 306
194 198 201 200 202 205 205 206 208 209 210 211 208 206 204 198 195 196 196 196 197 197 196 198 201 212 226 228 218 226 233 231 247 246 213 194 195 268 262 219 163 164 178 187 195 221 215 203 204 199 203 211 195 191 196 204 216 222 226 229 230 228 223 223 224 222 223 225 226 228 228 232 235 241 247 253 261 270 278 284 290 295 297 300 301
197 199 201 200 202 206 206 206 208 209 209 212 211 207 207 202 198 198 198 198 198 200 201 200 201 204 214 227 228 229 231 230 243 248 221 186 184 231 257 238 202 162 163 182 197 210 226 226 211 196 201 211 200 196 197 204 221 233 236 237 239 237 235 238 242 243 245 244 244 245 245 247 250 254 259 262 267 272 278 284 290 294 297 298 299
202 202 201 199 202 206 208 207 207 208 209 210 211 210 208 206 202 200 201 201 200 200 202 202 203 204 206 219 232 237 234 228 230 237 237 213 191 206 223 240 265 157 152 181 198 209 228 232 214 203 204 201 200 206 205 205 220 239 240 238 242 242 240 246 253 258 262 260 259 258 257 257 259 261 263 266 269 273 278 284 288 292 295 296 297
205 205 202 201 202 205 207 209 208 207 209 209 209 209 209 208 205 203 202 204 204 202 202 204 205 205 206 212 227 237 236 233 232 229 232 237 224 205 205 211 220 182 161 182 193 213 231 233 217 206 206 204 204 212 216 213 219 236 237 232 238 246 247 252 260 266 267 267 266 263 261 261 261 263 265 268 272 277 281 286 290 292 295 297 299
205 205 204 203 203 204 206 208 208 207 208 209 208 207 209 209 207 206 204 204 207 206 204 206 207 208 209 211 219 230 233 235 238 234 230 235 238 223 203 207 217 220 203 193 195 206 216 224 221 204 203 209 207 207 217 220 220 226 233 236 242 247 250 255 261 264 264 266 269 267 264 261 261 263 266 270 274 279 283 287 290 293 295 298 300
206 204 205 205 204 205 205 206 207 207 206 207 208 207 207 209 209 210 208 205 208 209 207 207 208 208 211 213 216 223 230 235 235 234 236 235 233 231 216 210 217 224 230 232 219 222 217 214 215 204 197 203 204 203 211 220 222 223 230 240 245 245 249 255 258 259 259 265 271 271 266 262 262 264 266 271 274 278 282 285 288 292 295 298 299
208 206 204 204 205 206 206 205 206 207 207 207 207 206 206 208 209 210 210 207 207 210 210 208 208 208 210 214 216 219 223 228 229 227 233 236 229 224 221 218 219 223 232 237 226 236 225 208 213 211 196 191 195 202 211 220 227 227 227 234 240 243 248 251 253 256 259 266 272 271 267 263 263 264 266 270 273 275 279 283 287 292 295 297 300
208 207 205 203 203 205 205 206 206 207 207 207 208 207 206 207 209 209 210 209 207 209 210 209 209 210 211 212 215 218 218 220 222 222 225 231 228 221 219 221 221 222 227 230 232 241 237 225 219 197 186 188 191 200 213 219 222 226 228 230 232 238 247 250 251 255 260 265 268 267 266 264 263 264 266 267 270 273 277 281 286 290 293 296 300
207 208 208 205 203 203 204 205 206 206 207 207 207 208 207 208 210 210 210 210 209 209 209 210 210 210 212 213 214 217 217 216 219 221 221 225 225 220 219 221 224 222 221 224 229 238 242 239 225 183 183 197 203 204 210 215 218 220 223 229 230 233 243 249 252 257 259 258 260 262 263 265 265 266 266 267 269 271 274 277 281 285 289 294 298
208 208 208 208 205 204 204 205 206 206 207 208 207 207 208 210 210 211 211 211 211 210 209 210 211 211 212 214 214 215 216 216 217 218 219 220 219 217 217 219 222 222 221 222 222 228 237 233 225 215 201 196 202 207 208 211 219 220 222 230 234 232 236 242 247 253 257 256 257 259 257 257 263 267 267 268 269 269 271 274 276 281 286 292 297
208 208 208 208 207 206 205 206 206 207 208 209 208 208 209 211 211 212 212 213 212 211 211 211 211 211 211 212 214 214 214 216 217 217 217 218 217 214 214 216 219 220 221 221 219 221 228 227 222 221 217 212 209 210 213 217 221 225 230 234 234 230 231 235 238 242 251 255 252 248 249 253 263 269 269 269 268 267 268 269 272 279 286 291 294
208 209 209 208 208 207 207 207 207 208 208 209 209 209 210 212 213 213 213 214 215 214 214 214 213 213 211 212 213 213 213 214 215 216 216 217 218 215 213 213 216 218 219 220 220 220 223 227 224 219 222 228 226 217 219 222 220 224 231 231 229 229 228 231 237 239 245 251 248 245 250 258 266 272 274 273 269 266 265 266 272 279 285 290 294
208 208 209 208 208 208 207 207 208 209 209 210 210 210 212 213 214 215 214 215 216 216 217 217 216 215 214 214 214 212 211 212 214 215 215 217 218 217 215 213 213 216 217 219 219 219 221 227 228 224 221 223 222 219 220 222 220 223 228 231 232 231 227 229 235 238 241 244 246 248 253 260 266 270 273 272 267 263 262 265 273 279 284 291 294
209 209 208 208 208 209 209 209 209 210 210 210 210 211 212 214 215 216 216 217 218 219 219 220 219 218 217 217 216 213 211 212 213 214 215 216 218 218 217 214 214 213 215 217 217 216 219 225 228 227 222 216 213 215 219 223 223 220 221 228 232 232 231 230 230 234 241 243 245 249 253 258 262 266 269 270 265 260 262 269 277 280 284 294 296
208 209 207 207 208 210 210 210 210 211 211 211 212 212 213 214 215 216 217 218 220 220 221 221 222 221 220 219 218 216 214 214 214 214 214 215 216 219 218 216 214 212 213 215 215 213 215 221 226 227 224 219 214 214 217 220 222 223 221 222 226 228 230 230 228 229 236 242 246 250 254 259 261 262 265 268 266 263 267 274 277 278 285 294 295
207 209 207 205 206 208 210 211 211 211 211 211 212 213 213 215 216 216 217 219 220 221 222 222 222 222 222 221 220 219 218 217 216 214 214 214 214 216 218 216 214 211 211 212 213 213 212 215 220 224 225 223 217 215 215 212 214 222 222 220 222 225 227 230 230 227 228 237 242 245 250 253 251 254 259 262 263 264 270 274 271 273 283 290 287
207 210 211 208 206 206 209 211 211 211 212 212 213 213 213 214 216 217 218 219 220 221 221 221 221 222 222 221 222 222 221 220 219 217 216 215 214 215 215 214 212 211 210 210 211 212 211 211 214 217 220 222 216 212 211 210 213 219 221 221 224 228 227 228 231 229 227 229 231 233 240 247 250 254 258 260 262 263 265 266 266 268 273 278 279
207 209 212 213 210 207 207 208 210 211 213 214 215 215 214 214 216 218 219 219 220 221 221 221 220 221 222 222 223 223 222 221 221 220 218 218 218 218 216 214 211 209 208 208 210 210 210 210 211 210 212 218 216 212 211 213 216 219 219 218 222 227 225 224 229 231 227 225 225 224 228 238 245 246 250 256 260 261 260 261 264 268 270 276 282
209 208 210 213 214 212 207 206 209 212 214 216 217 216 216 217 217 217 218 219 220 221 222 221 221 221 222 223 225 225 224 222 222 222 220 220 221 221 219 217 215 212 208 208 209 209 209 211 212 210 211 215 216 214 214 214 215 216 217 216 219 222 220 220 225 226 222 221 221 223 226 230 232 233 238 243 241 238 241 244 253 264 271 278 284
209 209 208 210 214 215 211 206 208 213 217 218 218 218 218 219 219 218 218 219 219 221 222 222 222 222 222 223 224 225 225 224 222 222 221 221 222 222 220 220 220 217 214 213 211 209 209 210 212 212 213 214 214 214 214 212 211 213 214 214 216 218 218 221 224 224 224 220 217 222 229 230 228 229 229 229 231 235 240 246 255 264 268 275 283
209 209 210 211 212 215 215 211 209 213 218 220 219 219 220 221 222 220 219 219 220 221 222 223 223 223 223 223 223 224 227 226 224 223 221 221 222 222 221 221 221 221 219 219 218 215 212 211 213 214 215 214 213 214 213 211 210 210 210 211 214 216 216 219 223 227 231 224 215 218 226 227 226 228 230 237 245 250 254 258 260 259 260 273 283
208 210 211 212 212 213 216 217 215 215 218 220 221 221 222 223 224 223 221 221 222 223 224 224 224 224 224 223 222 223 225 226 225 223 221 220 220 221 220 220 221 221 221 220 221 219 217 216 216 218 218 216 216 217 215 212 210 209 208 208 210 213 215 219 224 227 229 226 216 213 220 225 224 228 235 243 252 257 259 258 250 249 263 276 276
209 211 212 213 213 214 216 219 221 221 220 221 222 223 224 225 225 225 224 223 224 225 226 226 226 226 226 225 225 226 226 227 226 224 221 219 220 220 220 220 222 222 222 222 221 220 218 218 220 221 221 220 220 220 217 215 214 214 214 213 213 214 216 218 220 220 222 224 214 207 214 222 220 226 237 247 259 257 248 242 242 252 268 272 267
212 213 213 214 215 216 217 219 222 225 225 225 225 225 225 225 225 225 225 225 226 229 230 229 229 228 228 227 227 228 228 229 229 227 223 220 219 219 219 220 222 223 224 226 225 223 221 221 222 223 223 222 222 222 220 217 217 217 217 216 212 209 206 206 209 210 213 216 209 204 211 220 217 222 235 248 256 245 230 233 255 260 262 265 268
212 212 213 215 216 218 219 220 222 226 228 228 229 229 228 225 224 224 225 224 226 230 232 232 232 231 230 230 229 230 230 230 230 230 226 221 219 220 219 220 222 223 225 227 227 226 224 224 225 225 223 223 222 222 221 219 218 216 212 208 204 199 197 199 204 206 207 209 209 207 210 218 219 222 233 244 245 233 228 249 258 254 258 263 262
211 212 213 215 217 218 220 221 223 226 228 230 232 234 233 228 223 223 224 224 225 230 233 234 235 235 234 234 232 231 232 232 230 230 227 221 219 219 219 220 221 223 225 226 225 225 225 224 225 226 224 222 221 220 221 221 221 218 212 207 203 199 200 204 206 206 206 209 212 209 208 215 221 222 228 237 235 233 248 260 249 246 252 255 261
212 214 212 213 215 218 220 222 224 226 228 230 232 234 236 233 227 223 223 223 225 230 233 235 237 238 238 239 238 235 235 234 231 231 229 223 219 219 220 219 220 224 226 224 221 223 222 220 221 223 222 221 219 218 219 218 218 219 216 210 205 200 203 206 204 203 206 212 213 209 206 211 219 221 222 224 224 240 245 239 235 240 246 252 267
Height
840 841 841 842 843 843 844 844 844 844 845 846 846 846 846 847 847 847 848 848 848 848 848 848 848 848 849 850 851 852 851 852 852 853 853 854 855 856 856 857 858 859 859 860 860 861 862 863 863 864 865 865 866 867 867 868 869 869 870 870 871 871 872 872 873 873 874 874 875 875 876 876 876 877 877 877 877 877 877 877 877 877 877 877 877
840 840 841 842 842 843 843 844 844 845 845 846 845 845 846 846 847 847 848 848 848 848 848 847 848 848 849 849 850 850 850 850 852 852 853 853 854 855 856 857 858 858 859 860 860 861 862 862 863 864 864 865 866 866 867 868 869 869 870 871 871 872 872 873 873 874 874 874 875 875 876 876 876 876 876 876 877 877 877 877 877 877 877 877 877
839 840 840 841 842 842 843 844 844 845 845 845 845 846 846 847 847 848 848 848 848 847 847 847 848 848 848 849 849 850 849 849 851 852 853 853 854 855 856 857 858 858 859 859 860 860 861 862 863 863 864 864 865 866 866 867 868 869 870 870 871 872 872 873 873 874 874 874 875 875 876 876 876 876 876 876 876 876 876 877 877 877 876 876 876
839 840 840 841 842 842 843 844 844 845 845 845 846 846 847 847 847 847 847 848 847 847 847 847 847 847 848 848 848 849 849 849 850 851 852 853 854 855 855 856 857 858 859 859 859 860 860 861 862 863 863 864 864 865 866 867 868 869 869 870 871 871 872 872 873 873 874 874 874 875 875 875 875 875 875 876 876 876 876 876 876 876 876 875 875
838 840 841 841 842 843 844 844 845 845 845 846 846 847 846 847 847 847 847 847 846 846 846 846 846 846 847 848 848 849 849 849 850 851 852 853 854 855 855 856 857 858 858 859 859 859 860 861 862 862 863 864 864 865 866 866 867 868 869 869 870 871 871 872 872 873 873 873 874 874 874 874 875 875 875 875 875 875 875 875 875 875 875 875 874
838 839 841 842 842 843 844 844 845 845 846 846 846 847 846 847 847 847 847 846 846 845 845 845 845 846 847 847 848 848 849 848 849 851 852 853 854 855 855 856 857 857 858 859 859 859 860 860 861 862 862 863 864 865 865 866 867 867 868 869 869 870 870 871 871 872 872 873 873 873 873 874 874 874 874 874 874 874 874 874 874 874 873 873 873
837 839 840 841 842 842 843 843 844 845 846 846 846 846 846 847 846 846 846 845 845 845 845 845 845 846 846 847 847 848 848 848 848 850 852 853 854 854 855 856 856 857 858 858 859 859 859 860 861 861 862 863 863 864 864 865 866 867 868 868 869 869 870 870 870 871 871 871 872 872 872 872 872 872 872 872 872 873 873 873 873 872 872 872 872
837 838 839 841 841 842 842 843 844 845 845 845 846 846 846 846 846 846 845 844 844 844 844 844 845 846 846 846 847 847 848 848 849 850 852 853 854 854 855 856 856 857 858 858 859 859 859 860 861 861 861 862 863 863 864 864 865 866 867 867 868 868 868 869 869 870 870 870 870 871 871 871 871 871 871 871 871 871 871 871 871 871 871 871 870
836 837 838 840 841 842 842 842 843 844 844 845 845 845 845 846 845 845 845 844 844 844 843 844 845 845 846 846 846 847 848 849 850 850 852 853 853 854 855 855 856 857 858 858 859 859 859 860 861 861 861 862 862 863 863 864 864 865 866 866 867 867 867 868 868 868 869 869 869 869 870 870 870 870 870 870 871 871 871 871 871 870 870 870 870
835 836 837 839 840 841 841 842 842 843 843 844 845 845 845 845 845 845 845 844 844 844 844 844 845 845 845 846 846 847 849 850 850 851 852 852 853 854 854 855 856 857 858 858 859 859 860 860 861 861 861 862 862 863 863 863 864 864 865 865 866 866 866 867 867 867 867 868 868 869 869 869 869 870 870 870 870 870 870 870 870 870 870 870 869
834 835 836 837 839 840 840 841 842 842 842 843 844 844 844 844 845 845 845 845 844 844 845 845 845 845 846 846 847 848 850 850 851 851 852 852 853 854 854 855 856 857 858 858 859 860 860 860 861 861 861 862 862 863 863 863 863 864 864 864 865 866 866 866 866 867 867 867 868 868 869 869 869 869 870 870 870 870 870 870 870 870 870 869 869
833 834 835 836 837 839 839 840 841 841 842 842 843 843 843 844 844 845 845 845 845 844 845 845 845 846 846 847 848 849 850 850 850 850 851 852 853 854 854 855 856 857 858 858 859 860 860 860 861 861 861 862 862 863 863 863 863 864 864 864 865 865 866 866 867 867 867 867 868 868 868 869 869 869 870 870 870 870 870 869 869 869 869 869 868
831 832 833 835 836 838 839 839 840 840 841 842 842 842 843 844 844 844 844 844 845 844 845 845 845 846 847 848 848 849 850 850 850 850 850 852 852 853 854 855 856 857 858 858 859 860 861 861 861 861 862 862 862 863 863 863 863 863 864 864 865 865 866 866 867 867 867 868 868 868 868 869 869 869 869 869 869 869 869 869 869 869 869 869 868
830 831 833 834 835 836 837 838 839 839 840 841 842 842 843 843 844 844 844 844 844 844 845 845 845 846 847 847 848 849 850 849 850 850 850 851 852 853 854 855 857 857 858 859 859 860 861 861 861 862 862 862 862 863 863 863 863 863 864 864 865 865 866 866 867 867 868 868 868 868 868 869 869 869 869 869 869 869 869 869 869 869 869 869 869
829 830 831 833 834 835 836 837 837 838 839 840 841 841 842 842 843 844 844 844 844 844 845 845 846 846 846 849 849 850 852 850 849 850 850 851 851 852 853 855 856 857 858 859 859 860 860 861 861 862 862 862 862 863 862 862 863 863 864 864 864 865 866 866 867 867 868 868 868 868 868 869 869 869 869 869 869 869 869 869 869 869 869 869 869
828 829 830 831 833 834 835 835 836 837 838 839 840 840 841 842 843 844 844 844 844 844 845 845 846 846 847 849 848 850 855 852 848 849 849 850 851 852 853 854 856 857 858 858 859 859 860 861 861 861 862 862 862 862 862 862 863 863 864 864 864 865 866 866 866 867 867 868 868 868 868 869 869 869 869 869 869 869 869 869 869 869 869 869 869
827 828 829 830 831 832 833 834 835 836 837 838 839 839 841 841 842 843 843 844 844 844 845 845 846 846 846 848 849 852 853 849 848 849 849 850 852 852 853 855 856 857 857 858 859 859 860 861 861 861 861 862 862 862 862 862 863 863 863 864 865 865 865 866 866 867 867 867 868 868 868 869 869 869 869 869 869 869 869 869 869 869 869 869 868
826 827 828 829 830 831 832 833 834 835 836 837 838 838 840 841 841 842 843 843 843 844 845 845 846 846 846 847 848 850 849 847 849 852 850 849 851 852 853 854 855 856 857 858 858 858 859 860 861 861 861 861 861 861 862 862 863 863 863 864 864 865 865 866 866 866 867 867 867 868 868 868 868 869 869 869 869 869 869 869 869 869 869 869 868
824 826 827 828 829 831 832 832 833 834 835 837 837 838 839 840 841 842 842 843 843 843 844 845 845 846 846 846 846 847 847 848 849 852 853 852 851 851 853 854 855 856 856 857 857 857 858 859 860 860 861 861 861 861 862 862 862 863 863 864 864 864 865 865 865 866 866 866 867 867 867 868 868 868 868 869 869 869 869 869 869 869 869 869 868
823 824 825 827 828 829 830 832 832 833 834 835 836 837 838 839 840 841 842 842 842 842 843 844 844 845 846 846 846 847 848 848 849 850 853 854 853 852 852 853 854 855 855 855 856 857 857 858 859 859 860 861 861 861 861 861 862 862 863 863 864 864 864 864 865 865 865 866 866 866 867 867 867 868 868 868 869 869 869 869 869 869 869 869 869
821 822 824 825 826 827 829 830 831 832 833 834 836 837 837 838 839 840 841 841 842 842 842 843 844 844 845 845 846 847 848 849 849 850 851 854 855 852 851 852 853 854 854 854 855 855 856 858 858 859 859 860 861 861 861 862 862 862 862 863 863 864 864 864 865 865 865 865 866 866 866 867 867 867 868 868 868 868 868 869 869 869 869 869 869
819 821 822 823 825 826 827 829 830 831 832 833 835 836 836 837 838 839 840 841 841 842 842 843 843 844 845 845 846 847 848 848 849 850 851 852 854 851 850 851 852 853 854 854 855 855 856 857 858 859 859 860 861 861 861 862 862 862 862 863 863 863 864 864 864 865 865 865 866 866 866 867 867 867 867 868 868 868 868 868 868 868 868 868 868
817 819 820 822 823 825 826 827 828 830 831 832 833 834 835 836 837 838 839 840 840 841 841 842 843 844 845 845 846 847 848 849 849 849 850 850 851 850 849 849 851 852 854 854 854 855 856 856 858 858 858 859 860 860 860 861 861 862 863 863 863 863 864 864 864 865 865 865 866 866 866 866 867 867 867 867 867 867 868 868 868 868 867 868 867
814 816 818 820 821 823 824 826 827 828 829 830 832 833 834 835 836 837 838 838 839 840 840 841 842 844 845 845 846 847 848 848 848 848 848 849 850 849 848 848 850 851 853 854 854 855 855 855 856 857 857 858 858 859 860 860 860 861 862 863 864 864 864 864 864 864 865 865 866 866 866 866 866 867 867 867 867 867 867 867 867 867 867 867 866
812 814 815 817 819 820 822 823 825 826 827 829 830 832 833 833 834 835 836 837 838 838 839 840 841 843 844 845 846 847 847 847 847 847 847 848 848 849 848 848 848 850 851 852 853 854 854 854 854 855 856 857 858 858 859 860 860 861 862 862 863 864 864 864 864 864 864 865 865 865 866 866 866 867 867 867 867 867 867 867 866 866 866 865 865
809 811 812 815 816 817 819 821 822 824 825 827 828 830 831 832 832 833 834 835 836 837 838 838 840 841 843 844 845 846 846 846 846 846 846 847 848 848 848 848 848 849 850 852 852 853 853 853 853 854 855 856 857 858 859 860 860 860 861 861 862 862 863 864 864 864 864 864 865 865 865 866 866 866 866 866 866 866 866 866 866 865 865 864 863
806 808 810 812 814 815 817 818 820 822 823 825 826 827 829 830 831 831 832 833 834 835 836 837 838 839 841 842 843 844 845 845 845 845 846 846 846 847 847 848 849 849 850 851 852 851 851 852 852 852 853 854 855 856 857 859 859 860 860 860 861 861 862 862 863 863 863 864 864 864 864 865 865 865 865 865 865 865 865 865 864 864 863 863 862
804 806 808 809 811 812 814 816 818 819 821 822 824 825 826 827 829 830 831 832 832 833 834 835 836 837 839 840 841 842 843 844 844 844 845 845 845 845 846 847 849 851 851 851 851 850 850 850 850 850 850 852 853 854 855 857 858 859 859 860 860 860 861 861 862 862 862 863 863 863 863 864 864 864 864 864 864 864 863 863 863 862 862 861 861
801 803 805 807 808 810 811 813 815 817 818 819 821 823 824 825 826 827 828 830 830 831 832 833 834 836 837 838 839 840 841 841 843 843 843 844 844 844 845 845 847 849 850 851 850 847 847 848 848 848 848 850 851 853 854 855 856 857 858 859 859 859 859 860 860 861 861 861 862 862 862 862 863 863 863 863 863 862 862 862 861 861 860 860 859
798 800 802 804 806 807 809 810 812 814 816 817 818 820 821 823 824 825 826 828 828 829 830 831 832 834 835 836 837 838 839 840 841 842 842 843 843 843 844 844 845 846 847 849 848 845 845 846 846 847 847 848 850 851 853 853 854 855 856 857 857 858 858 858 859 859 859 860 860 860 861 861 861 861 861 861 861 861 861 860 860 859 859 859 858
795 797 799 800 803 805 806 808 810 812 813 814 816 817 819 820 821 823 824 825 826 827 828 829 830 831 832 833 834 835 836 838 839 840 841 841 842 842 843 843 844 845 845 846 847 845 843 844 845 845 845 847 849 850 852 852 853 854 854 855 856 856 857 857 857 857 858 858 858 859 859 859 859 859 859 859 859 859 859 858 858 858 858 857 857
792 794 796 797 799 801 804 806 807 809 811 812 813 814 816 817 819 820 821 822 824 824 825 827 828 829 829 830 832 832 834 836 837 838 839 839 840 840 842 842 843 843 843 844 845 844 843 843 845 845 845 847 848 849 850 851 851 852 853 854 854 855 855 855 855 856 856 856 857 857 857 857 857 857 857 857 857 857 857 856 856 856 856 856 855
789 791 793 794 796 798 800 803 804 806 808 809 811 812 813 814 816 817 818 820 821 822 823 824 825 826 827 828 829 830 831 833 834 836 837 837 838 838 840 841 841 842 842 842 842 842 842 843 844 844 845 845 847 848 849 849 850 850 851 852 852 853 853 853 853 854 854 854 855 855 855 855 855 855 855 855 855 855 855 855 854 854 854 854 854
785 787 789 791 793 795 797 799 801 803 805 806 808 809 810 811 812 814 816 817 818 819 820 821 822 823 824 825 826 827 829 830 832 833 834 835 835 836 837 838 839 839 840 840 841 841 842 842 842 843 843 844 844 845 847 847 848 848 849 850 850 850 851 851 851 852 852 852 852 852 853 853 853 853 853 853 853 853 853 853 853 852 852 852 852
782 784 786 788 790 792 794 796 798 799 801 803 804 805 806 807 809 810 812 813 814 815 816 817 818 819 820 821 823 824 826 827 829 830 831 832 833 833 834 835 836 837 838 839 839 839 840 840 841 841 842 842 843 843 844 845 846 846 847 847 848 848 848 849 849 849 849 850 850 850 850 851 851 851 851 851 851 851 851 851 851 851 851 851 850
778 780 783 785 787 789 790 792 794 796 797 799 801 802 803 804 805 806 808 810 811 812 813 814 815 816 817 818 819 821 823 824 825 827 828 829 830 830 831 832 833 834 836 836 837 838 838 839 839 839 840 840 841 842 842 843 844 845 845 845 845 846 846 846 847 847 847 847 848 848 848 848 849 849 849 849 849 849 849 849 849 849 849 849 848
775 777 779 781 783 785 786 788 790 791 793 795 796 798 799 800 801 803 804 806 807 808 809 810 811 812 813 814 816 818 819 821 822 823 825 826 827 828 828 829 830 831 833 834 834 835 836 836 837 837 838 838 839 839 840 841 842 842 843 843 843 844 844 844 845 845 845 845 845 846 846 846 846 846 846 847 847 847 847 847 847 847 847 847 847
771 773 775 777 779 781 782 784 786 787 789 791 793 794 796 797 799 800 801 803 804 805 806 807 808 809 810 812 813 814 816 817 818 820 821 823 824 825 825 825 827 828 829 830 831 832 833 834 834 835 835 835 836 836 837 838 839 839 840 841 841 841 842 842 843 843 842 842 843 843 844 844 844 844 844 844 844 845 845 845 845 845 845 845 845
767 769 770 772 774 777 778 780 782 784 786 788 790 791 793 794 796 797 798 800 800 801 803 804 806 807 808 809 810 811 812 813 814 816 818 819 821 821 822 823 824 825 826 827 828 829 830 831 832 832 832 832 833 833 834 835 836 837 837 838 838 838 839 839 840 840 840 840 840 841 842 842 842 842 842 843 843 843 843 843 844 844 844 843 843
762 764 766 768 770 772 774 776 778 781 783 784 786 788 789 791 793 794 795 796 797 798 799 800 802 804 805 806 807 808 808 809 810 812 813 815 816 817 818 819 820 821 822 823 824 825 826 827 828 829 829 830 830 830 831 832 833 833 833 834 834 835 835 836 837 838 838 838 838 839 839 840 840 840 840 841 841 841 842 842 842 842 842 842 841
758 761 762 764 766 768 770 772 775 777 779 780 781 783 785 787 789 790 791 792 793 794 795 796 798 799 801 802 803 804 804 805 806 807 808 809 810 811 812 814 815 816 818 819 820 821 822 822 823 824 826 826 826 826 827 827 827 828 829 831 832 832 832 833 833 834 835 836 836 837 837 837 837 837 838 838 839 839 839 840 840 840 840 840 840
754 756 759 761 762 764 766 768 771 773 774 775 776 778 780 782 784 785 786 788 789 790 791 792 794 795 796 798 798 799 800 800 802 803 804 804 804 804 806 808 809 811 813 814 815 815 817 817 818 819 820 820 821 821 822 822 823 825 826 828 828 829 830 830 830 830 832 833 834 834 834 835 835 835 835 835 836 837 837 837 837 837 837 838 838
750 752 755 757 759 760 762 764 766 767 768 769 770 772 774 776 778 780 781 783 784 786 787 788 789 790 792 793 794 795 795 795 797 798 799 799 799 800 802 803 804 805 806 808 808 810 811 812 812 814 814 814 815 816 817 818 820 821 822 823 825 826 827 827 827 827 827 829 831 831 831 832 833 833 832 833 834 834 834 835 835 835 835 836 836
745 748 750 752 754 756 758 759 761 762 762 764 765 767 769 770 772 774 776 778 780 781 782 783 784 785 786 787 788 789 789 790 791 792 793 794 795 796 798 799 799 799 800 800 801 803 804 806 807 807 807 808 810 811 812 813 815 816 817 819 820 822 823 823 823 823 824 825 827 827 828 829 830 830 830 830 831 831 832 832 832 833 833 834 834
741 743 745 747 749 752 754 755 756 757 758 760 761 762 764 765 767 769 771 773 774 775 776 777 779 779 780 781 782 783 784 784 785 786 787 788 790 791 793 793 793 793 794 794 795 796 798 799 800 800 801 803 804 804 806 808 809 811 812 814 815 817 818 819 819 820 821 823 824 825 825 826 827 827 827 828 828 828 829 829 830 830 831 831 831
737 738 740 742 745 748 749 751 752 752 754 755 757 758 759 761 763 765 767 768 769 770 771 772 772 773 774 775 776 777 779 779 779 779 780 782 784 785 787 787 787 788 789 790 790 792 793 795 795 795 796 798 798 799 801 803 804 805 806 808 810 812 813 815 816 818 819 819 821 822 823 824 824 825 825 825 826 825 825 826 827 827 827 828 828
732 733 736 739 741 743 745 747 748 748 750 751 752 754 755 757 759 761 763 764 765 765 766 766 767 768 769 771 771 772 773 773 773 773 775 777 779 780 781 782 783 784 784 784 784 786 788 789 789 790 791 793 795 796 798 799 800 801 802 803 805 808 810 812 814 815 816 817 818 819 820 821 822 822 822 823 823 822 823 824 824 824 825 825 825
729 731 733 735 737 739 741 743 744 745 746 747 748 749 750 753 755 757 758 760 761 761 761 762 762 763 765 766 766 767 768 768 768 769 771 774 776 776 777 778 779 780 779 779 779 781 782 783 784 786 787 789 791 793 795 796 796 798 800 801 803 805 807 809 810 812 812 814 815 816 817 818 819 819 820 821 821 820 820 821 821 822 823 823 823
726 728 730 731 733 735 737 738 739 740 742 743 744 744 746 748 751 752 753 755 757 757 756 757 758 759 760 761 761 762 762 762 764 765 767 770 771 771 772 773 774 774 772 772 774 775 776 778 779 781 783 785 787 789 791 792 793 795 796 797 799 801 803 805 807 808 810 810 812 813 814 815 816 817 817 818 818 818 818 818 819 820 820 820 821
722 725 726 728 730 731 732 734 735 736 737 739 740 741 742 743 745 746 748 751 752 751 751 753 755 756 756 756 756 756 756 757 759 760 762 763 764 765 766 766 767 765 763 764 766 767 769 772 774 776 778 781 783 785 786 788 790 791 791 792 794 797 799 801 802 804 806 807 808 810 812 812 813 814 815 816 816 815 815 816 817 818 818 818 818
719 721 723 724 725 727 728 730 731 732 734 735 736 737 737 739 741 742 745 747 747 746 747 750 751 752 753 752 752 752 752 753 755 755 755 756 757 757 757 759 759 755 752 756 759 760 761 764 767 769 772 774 777 779 781 783 785 786 787 788 790 792 794 795 797 800 801 802 803 805 807 808 810 811 812 813 813 813 813 814 815 815 815 816 816